Showing default

KSM1-A, 46912

Orbit data source: Space-Track

KSM1-A, 46912 is a payload satellite owned by Kleos Space (LU) in LEO that was launched on Sat, 07 Nov 2020 UTC via a PSLV-DL launch vehicle from the Sirharikota (SRI). Payload-class satellites include a variety of spacecraft equipped with specific instruments for various scientific and technological missions. These include communications satellites like Starlink; space stations such as the ISS; scientific satellites like the Hubble; Earth observation satellites from companies like Planet Labs, Umbra, and HawkEye 360; GPS; miniature CubeSats for education and research; and military/defense satellites.

Loading next visibility...
Identifier
46912, 2020-081H
Orbit
LEO
Country
Flag of UnknownUnknown / LUXE
Related business
Manufacturer
GOMSpace
Mission
Operational Commercial Sigint
Bus & Motor
CUBESAT 6U, Unknown motor
Mass
~10 kg wet, ~10 kg dry
Launch date (UTC)
2020-11-07 (5 years ago)
Launch vehicle
PSLV-DL
Launch site
Sirharikota (SRI)
Object type
Payload
Rocket body
Debris
Shape & HBR
Box, Unknown HBR
Radar Cross Section
0.080 m², Medium (>0.1 m² and < 1m²)

Expand to show TLE details & history
Last TLE update: 9 hours ago

TLE from 9 hours ago
0 KSM1-A
1 46912U 20081H   25243.14146763  .00012659  00000-0  58436-3 0  9993
2 46912  36.8967  41.8501 0003093  31.2558 328.8372 15.19619056264931
Epoch: 2025-08-31T03:23Z
TLE epoch observation values (Epoch: 2025-08-31T03:23:42.803Z)
Latitude
-0.00004°
Longitude
11.35603°
Altitude
504.278 km
Speed
7.615 km/s
True Right ascension
02h 47m 24s
True Declination
0° 00' 00"
Sunlit
Object was in full shadow at epoch
Visualization orbit readout
Latitude
Unknown
Longitude
Unknown
Altitude
Unknown
Speed
Unknown
Apparent Right ascension
Unknown
Apparent Declination
Unknown
Sunlit
N/A
Visualization observer readout
Local Sidereal Time
04:00:41
Azimuth
Unknown
Elevation
Unknown
Doppler factor
Unknown
Orbital elements
Apogee altitude
512.065 km
Perigee altitude
507.804 km
Semi-major axis
6,888.071 km
Eccentricity
0.00031
Inclination
36.8967°
RAAN
41.8501°
Arg. of periapsis
31.2558°
True anomaly
328.81885°
Mean anomaly
328.8372°
Eccentric anomaly
328.82803°
Mean motion
3.79662 °/min
Orbital period
94.82 mins
BSTAR
0.00058436
Loading maneuver chart data...
Computing Atmospheric mass density...
Loading historical data...
Loading historical data...
Loading historical data...
Loading historical data...
Loading historical data...
Loading historical data...
Loading historical data...

Documentation

Showing up to 5 results
|